Aérodrome :
LOGIN :

S'inscrire | Disclaimer

   EN    FR    IT 

 










Légende :    VFR   VFR Marginal   IFR   IFR Intensif   IFR Très Intensif
Visi : 
Plafond : 
>= 8 km
>= 3000ft
5 à 8 km
1000 à 3000 ft
1500m à 5 km
500 à 1000 ft
800 à 1500m
200 à 500 ft
< 800m
< 200 ft
Symboles :   Orages  Brouillard  Fortes neiges  Fortes précipitations  Vent > 20 kt
SIGMETs :   Divers  Orages  Givrage  Turbulence  Onde Orograph.  Cendres Volcan.







- Altitude de l'aérodrome : 939 ft


LKKB - Kbely Air Base

DERNIER METAR :
  • 251800Z VRB02KT CAVOK 23/08 Q1018 NOSIG

METARs EXPIRÉS :
  • 251700Z VRB01KT CAVOK 25/08 Q1018 NOSIG
  • 251600Z VRB02KT CAVOK 24/10 Q1018 NOSIG

TAF TAF LKKB
Valide du 25 à 18h jusqu'au 26 à 18h UTC


251700Z 2518/2618 VRB02KT CAVOK
PROB30
TEMPO 2518/2520 SHRA SCT045TCU
BECMG 2608/2610 10006KT
TEMPO 2609/2615 SCT035
Pas de NOTAMs connus pour ce terrain.



MET'MAP, la Météo Aéronautique d'un coup d'oeil ! - Copyright ORBIFLY Décembre 2007 - Disclaimer

ORBIFLY MET'MAP TEAM :

Programmation & Développement : Alexandra Zaïnal
Conception & Développement : Baudouin d'Aumeries
Co-Programmation & Développement : Marc-Olivier Méhu
Soutien technique & logistique : Manuel Goepfert

Contact : metmap@orbifly.com




SOURCES & CREDITS :

   NOAA